ICEYE-X32 (58293 NORAD) Tracking and Keplerian Element Data

This shows tracking and keplerian element data for the satellite.

Feedback or suggestion? Click here.




ElementValue
Catalog58293
NameICEYE-X32
Epoch Orbit6936
Epoch Day35.13025558
Epoch Year2025
RAAN119.0787
Inclination97.4227
Eccentricity0.0002625
Argument of Perigee125.5027
Mean Anonmoly234.6475
Mean Motion15.60312417
Decay Rate0.00163861
L11 58293U 23174AP 25035.13025558 .00163861 00000+0 19692-2 0 9991
L22 58293 97.4227 119.0787 0002625 125.5027 234.6475 15.60312417 69365



Live tracking and technical data element details for ICEYE-X32 (NORAD 58293). ICEYE-X32 can be tracked NOW for your location showing map with azimuth and elevation plus other details from your city location.







IsCatalogInMostPopularTable: catalog: 58293, numindb: 23
Update: records affected: 1



GetName: 58293 ICEYE-X32

Hit Count: updated at: Wed, 18 Jun 2025 04:51:06 GMT